www.pogodaiklimat.ru

Погода и климат >> Архив погоды >> Сенегал >> Podor


ПОГОДА в Podor

  • Прогноз погоды в Podor
  • Монитор погоды в Podor
  • Климат города

АРХИВ ПОГОДЫ в Podor

Время (UTC), дата Ветер
(напр.,м/с)
 
Видим.   Явления Облачность Т
(С)
Тd
(С)
f
(%)
Тe
(С)
Тes
(С)
Комфортность P
(гПа)
Po
(гПа)
Тmin
(С)
Tmax
(С)
R
(мм)
R24
(мм)
S
(см)
21 10.10 В 1 10 км ясно +33.1 +15.5 35 +35 +35 душно 1008.4 1007.6
00 11.10 ЮЗ 1 10 км ясно +29.7 +15.8 43 +33 +33 душно 1009.9 1009.1
03 11.10 Ю 2 10 км ясно +27.5 +18.2 57 +32 +32 очень
душно
1009.0 1008.2
06 11.10 З 2 10 км ясно +25.2 +18.3 66 +30 +30 душно 1009.6 1008.8 +24.8
09 11.10 В 1 10 км ясно +28.0 +18.8 57 +33 +38 очень
душно
1010.7 1009.9
12 11.10 ЮЗ 1 10 км ясно +38.5 +16.1 27 +40 +62 опасность
солнечного
удара
1010.6 1009.8
15 11.10 В 1 10 км ясно +42.8 +15.4 20 +44 +59 опасность
перегрева
1008.3 1007.5
18 11.10 штиль 0 10 км ясно +39.8 +15.4 24 +41 +42 опасность
перегрева
1008.0 1007.2 +43.3
21 11.10 штиль 0 10 км ясно +33.3 +17.4 39 +37 +37 очень
душно
1009.5 1008.7
00 12.10 В 2 10 км ясно +30.6 +18.3 48 +35 +35 очень
душно
1011.3 1010.5
03 12.10 В 4 10 км 9/0
[Ac As]
+29.0 +17.8 51 +33 +33 очень
душно
1011.3 1010.5
06 12.10 ЮЗ 4 10 км ясно +28.5 +20.3 61 +35 +35 очень
душно
1012.3 1011.5 +28.0
09 12.10 ЮЗ 4 10 км 5/0
[Ci sp]
+29.0 +21.2 63 +37 +39 очень
душно
1013.3 1012.5
12 12.10 ЮЗ 2 10 км 4/0
[Ci sp]
+34.6 +20.8 45 +42 +58 опасность
перегрева
1013.9 1013.1
15 12.10 ЮЗ 2 10 км 4/0
[]
+38.4 +20.2 35 +44 +55 опасность
перегрева
1011.2 1010.4
18 12.10 ЮЗ 1 10 км ясно +37.4 +21.1 39 +44 +45 опасность
перегрева
1010.3 1009.5 +39.5
21 12.10 ЮЗ 3 10 км ясно +32.0 +21.4 54 +40 +40 очень
душно
1012.5 1011.7
00 13.10 З 1 10 км ясно +29.0 +22.4 68 +38 +38 очень
душно
1013.1 1012.3
03 13.10 штиль 0 10 км 1/0
[Ci sp]
+27.2 +23.4 80 +37 +37 очень
душно
1012.4 1011.3
06 13.10 З 1 10 км ясно +26.0 +24.0 89 +36 +36 очень
душно
1011.9 1011.1 +25.4
09 13.10 З 1 10 км ясно +28.0 +24.3 80 +39 +44 очень
душно
1013.1 1012.3
12 13.10 СВ 1 10 км ясно +35.5 +23.5 50 +46 +67 опасность
перегрева
1013.3 1012.5
15 13.10 СВ 1 10 км ясно +41.1 +21.6 33 +48 +65 опасность
перегрева
1009.6 1008.8
18 13.10 СВ 1 10 км ясно +40.0 +21.3 34 +47 +48 опасность
перегрева
1008.9 1008.1 +42.3
21 13.10 СВ 1 10 км ясно +35.2 +21.9 46 +43 +43 опасность
перегрева
1010.0 1009.2
00 14.10 З 1 10 км ясно +31.2 +21.7 57 +40 +40 очень
душно
1010.9 1010.1
03 14.10 З 1 10 км ясно +28.5 +21.9 67 +37 +37 очень
душно
1009.9 1009.1
06 14.10 ЮЗ 1 10 км ясно +26.5 +21.6 74 +34 +34 очень
душно
1010.2 1009.4 +26.0
09 14.10 0 н/о +32.0 +20.9 52 1011.8 1011.0
12 14.10 В 3 7000 м ясно +39.0 +18.9 31 +43 +57 опасность
перегрева
1011.6 1010.8
15 14.10 В 3 8000 м ясно +41.6 +15.0 21 +42 +53 опасность
перегрева
1009.2 1008.4
18 14.10 В 2 8000 м ясно +40.0 +15.0 23 +41 +42 опасность
перегрева
1008.7 1007.9 +42.4
21 14.10 В 1 10 км ясно +34.8 +17.4 36 +38 +38 очень
душно
1010.3 1009.4
00 15.10 штиль 0 10 км ясно +30.2 +18.4 49 +35 +35 очень
душно
1011.7 1010.9
03 15.10 штиль 0 10 км ясно +27.1 +18.4 59 +32 +32 очень
душно
1010.6 1009.8
06 15.10 штиль 0 10 км ясно +27.0 +18.5 60 +32 +32 очень
душно
1011.2 1010.4 +25.8
09 15.10 СВ 1 8000 м ясно +29.8 +17.4 47 +34 +38 очень
душно
1013.1 1012.3
12 15.10 В 1 8000 м мгла ясно +38.0 +10.2 19 +37 +57 опасность
солнечного
удара
1011.7 1010.9
15 15.10 В 1 8000 м мгла ясно +41.5 +8.2 14 +39 +55 опасность
солнечного
удара
1009.6 1008.8
18 15.10 В 1 8000 м мгла ясно +38.0 +10.5 19 +37 +38 очень
жарко
1009.0 1008.2 +42.0
21 15.10 В 1 8000 м ясно +31.7 +16.0 39 +35 +35 очень
душно
1011.5 1010.7
00 16.10 штиль 0 10 км ясно +29.1 +11.9 35 +30 +30 жарко 1012.6 1011.8
03 16.10 штиль 0 10 км ясно +28.4 +11.3 35 +29 +29 жарко 1011.8 1011.0
06 16.10 СВ 1 10 км ясно +27.4 +11.0 36 +28 +28 жарко 1012.1 1011.3 +26.4
09 16.10 штиль 0 8000 м ясно +29.1 +10.9 32 +29 +35 жарко 1014.5 1013.7
12 16.10 В 1 8000 м мгла ясно +37.5 +10.1 19 +36 +57 опасность
солнечного
удара
1014.8 1014.0
15 16.10 В 1 8000 м мгла ясно +41.1 +8.1 14 +39 +54 опасность
солнечного
удара
1012.6 1011.8
18 16.10 В 1 8000 м 4/0
[Ac cast]
+38.0 +8.7 17 +36 +37 очень
жарко
1011.2 1010.4 +41.6
21 16.10 штиль 0 8000 м ясно +33.1 +13.2 30 +34 +34 очень
жарко
1013.3 1012.5
00 17.10 ЮЗ 1 10 км ясно +32.0 +14.7 35 +34 +34 душно 1014.7 1013.9
03 17.10 ЮЗ 2 10 км ясно +29.5 +14.5 40 +32 +32 душно 1013.7 1012.9
06 17.10 ЮЗ 2 10 км ясно +28.0 +18.8 57 +33 +33 очень
душно
1014.5 1013.7 +27.5
09 17.10 ЮЗ 1 10 км ясно +29.5 +19.1 54 +35 +39 очень
душно
1015.1 1014.3
12 17.10 З 1 7000 м 4/0
[Ac As]
+35.5 +18.8 37 +40 +54 опасность
солнечного
удара
1015.6 1014.8
15 17.10 штиль 0 8000 м ясно +40.5 +18.0 27 +44 +61 опасность
перегрева
1013.2 1012.4

 

Местоположение метеостанции Podor (Сенегал): широта 16.65 долгота -14.96 высота над уровнем моря 7 м.

В архиве по умолчанию представлена погода в Podor за последнюю неделю. Архивные данные за месяц целиком и за предыдущие месяцы, начиная с января 2011 года, Вы можете получить, выбрав интересующий диапазон дат из раскрывающегося списка и нажав кнопку "Ввод!".

Внимание! Время в таблицах - всемирное. Для получения местного времени необходимо прибавить поправку, которая в Podor равна 0 ч.

Смотрите также архив погоды в соседних городах и на ближайших метеорологических станциях:

Погода в Rosso (Мавритания) (92 км)
Погода в Boutilimit (Мавритания) (102 км)
Погода в Linguere (Сенегал) (142 км)
Погода в Kaedi (Мавритания) (164 км)
Погода в Saint-Louis (Сенегал) (172 км)
Погода в Nouakchott (Мавритания) (192 км)
Погода в Matam (Сенегал) (214 км)
Погода в Diourbel (Сенегал) (261 км)
Погода в Kaolack (Сенегал) (304 км)
Погода в Kauur (Гамбия) (329 км)

Пояснения к столбцам:

Ветер - указаны скорость ветра в м/с - средняя за 10 мин, порывы в срок и между сроками (в фигурных скобках) и направление, откуда дует ветер: С - северный, СВ - северо-восточный, В - восточный, ЮВ - юго-восточный, Ю - южный, ЮЗ - юго-западный, З - западный, СЗ - северо-западный.
Видимость - горизонтальная дальность видимости в метрах или километрах. При видимости от 1 до 10 км при отсутствии осадков обычно наблюдается дымка, при ухудшении видимости до 1 км и менее - туман. В сухую погоду видимость может ухудшаться дымом, пылью или мглою.
Явления - указаны атмосферные явления, наблюдавшиеся в срок или в последний час перед сроком; фигурными скобками обозначены явления, наблюдавшиеся между сроками (за 1-3 часа до срока); квадратными скобками обозначены град или гололедные отложения с указанием их диаметра в мм.
Облачность - указаны через наклонную черту общая и нижняя облачность в баллах и высота нижней границы облаков в метрах; квадратными скобками обозначены формы облаков: Ci - перистые, Cs - перисто-слоистые, Cc - перисто-кучевые, Ac - высококучевые, As - высокослоистые, Sc - слоисто-кучевые, Ns - слоисто-дождевые, Cu - кучевые, Cb - кучево-дождевые. Подробнее классификацию облаков см. в Атласе облаков (PDF).
T - Температура воздуха - температура, измеренная на высоте 2 м над землей.
Td - Температура точки росы - температура, при понижении до которой содержащийся в воздухе водяной пар достигнет насыщения.
f - Относительная влажность воздуха - влажноcть воздуха, измеренная на высоте 2 м над землей.
Te - Эффективная температура - температура, которую ощущает одетый по сезону человек в тени. Характеристика душности погоды. При расчете учитывается влияние влажности воздуха и скорости ветра на теплоощущения человека.
Tes - Эффективная температура на солнце - температура, которую ощущает человек, с поправкой на солнечный нагрев. Характеристика знойности погоды. Зависит от высоты солнца над горизонтом, облачности и скорости ветра. Ночью, в пасмурную погоду, а также при ветре 12 м/с и более поправка равна нулю.
P - Атмосферное давление - приведенное к уровню моря атмосферное давление.
Po - Атмосферное давление - измеренное на уровне метеостанции атмосферное давление.
Tmin - Минимальная температура - минимум температуры воздуха на высоте 2 м над землей.
Tmax - Максимальная температура - максимум температуры воздуха на высоте 2 м над землей.
R - Количество осадков - Количество выпавших осадков за период времени, мм. При наведении курсора мыши на число - период времени, за который выпало указанное количество осадков.
R24 - Количество осадков - Количество выпавших осадков за 24 часа, мм.
S - Снежный покров - Высота снежного покрова, см. При наведении курсора мыши на число - состояние снежного покрова и степень покрытия местности в баллах.